Time,TemperatureF,DewpointF,PressureIn,WindDirection,WindDirectionDegrees,WindSpeedMPH,WindSpeedGustMPH,Humidity,HourlyPrecipIn,Conditions,Clouds,dailyrainin,SoftwareType,DateUTC
2013-05-19 06:21:00,16.0,-99.9,30.11,West,273,13.0,-999.0,-999,-99.99,,,-99.99,,2013-05-19 14:21:00,
2013-05-19 06:32:00,16.0,-99.9,30.11,West,273,13.0,-999.0,-999,-99.99,,,-99.99,,2013-05-19 14:32:00,
2013-05-19 06:42:00,16.0,-99.9,30.11,West,273,13.0,-999.0,-999,-99.99,,,-99.99,,2013-05-19 14:42:00,
2013-05-19 06:52:00,16.0,-99.9,30.11,West,273,13.0,-999.0,-999,-99.99,,,-99.99,,2013-05-19 14:52:00,
2013-05-19 07:02:00,17.0,-99.9,30.10,West,270,14.0,-999.0,-999,-99.99,,,-99.99,,2013-05-19 15:02:00,
2013-05-19 07:12:00,17.0,-99.9,30.10,West,270,14.0,-999.0,-999,-99.99,,,-99.99,,2013-05-19 15:12:00,
2013-05-19 07:22:00,18.0,-99.9,30.13,West,265,13.0,-999.0,-999,-99.99,,,-99.99,,2013-05-19 15:22:00,
2013-05-19 07:33:00,18.0,-99.9,30.13,West,265,13.0,-999.0,-999,-99.99,,,-99.99,,2013-05-19 15:33:00,
2013-05-19 07:43:00,18.0,-99.9,30.13,West,265,13.0,-999.0,-999,-99.99,,,-99.99,,2013-05-19 15:43:00,
2013-05-19 07:53:00,18.0,-99.9,30.13,West,265,13.0,-999.0,-999,-99.99,,,-99.99,,2013-05-19 15:53:00,
2013-05-19 08:03:00,18.0,-99.9,30.13,West,265,13.0,-999.0,-999,-99.99,,,-99.99,,2013-05-19 16:03:00,
2013-05-19 12:22:00,27.0,-99.9,30.24,WSW,244,11.0,-999.0,-999,-99.99,,,-99.99,,2013-05-19 20:22:00,
2013-05-19 12:32:00,27.0,-99.9,30.24,WSW,244,11.0,-999.0,-999,-99.99,,,-99.99,,2013-05-19 20:32:00,
2013-05-19 12:42:00,27.0,-99.9,30.24,WSW,244,11.0,-999.0,-999,-99.99,,,-99.99,,2013-05-19 20:42:00,
2013-05-19 12:52:00,28.0,-99.9,30.24,WSW,257,9.0,-999.0,-999,-99.99,,,-99.99,,2013-05-19 20:52:00,
2013-05-19 13:02:00,28.0,-99.9,30.24,WSW,257,9.0,-999.0,-999,-99.99,,,-99.99,,2013-05-19 21:02:00,
2013-05-19 13:11:00,28.0,-99.9,30.24,WSW,257,9.0,-999.0,-999,-99.99,,,-99.99,,2013-05-19 21:11:00,
2013-05-19 13:22:00,29.0,-99.9,30.25,West,267,9.0,-999.0,-999,-99.99,,,-99.99,,2013-05-19 21:22:00,
2013-05-19 13:32:00,29.0,-99.9,30.25,West,267,9.0,-999.0,-999,-99.99,,,-99.99,,2013-05-19 21:32:00,
2013-05-19 13:43:00,29.0,-99.9,30.25,West,267,9.0,-999.0,-999,-99.99,,,-99.99,,2013-05-19 21:43:00,
2013-05-19 13:53:00,30.0,-99.9,30.26,WSW,242,11.0,-999.0,-999,-99.99,,,-99.99,,2013-05-19 21:53:00,
2013-05-19 14:03:00,30.0,-99.9,30.26,WSW,242,11.0,-999.0,-999,-99.99,,,-99.99,,2013-05-19 22:03:00,
2013-05-19 14:12:00,30.0,-99.9,30.26,WSW,242,11.0,-999.0,-999,-99.99,,,-99.99,,2013-05-19 22:12:00,
2013-05-19 14:23:00,30.0,-99.9,30.26,WSW,242,11.0,-999.0,-999,-99.99,,,-99.99,,2013-05-19 22:23:00,
2013-05-19 14:33:00,30.0,-99.9,30.26,WSW,242,11.0,-999.0,-999,-99.99,,,-99.99,,2013-05-19 22:33:00,
2013-05-19 14:53:00,32.0,-99.9,30.27,WNW,294,11.0,-999.0,-999,-99.99,,,-99.99,,2013-05-19 22:53:00,
2013-05-19 15:03:00,32.0,-99.9,30.27,WNW,294,11.0,-999.0,-999,-99.99,,,-99.99,,2013-05-19 23:03:00,
2013-05-19 15:12:00,32.0,-99.9,30.27,WNW,294,11.0,-999.0,-999,-99.99,,,-99.99,,2013-05-19 23:12:00,
2013-05-19 15:22:00,33.0,-99.9,30.27,WSW,257,10.0,-999.0,-999,-99.99,,,-99.99,,2013-05-19 23:22:00,
2013-05-19 15:32:00,33.0,-99.9,30.27,WSW,257,10.0,-999.0,-999,-99.99,,,-99.99,,2013-05-19 23:32:00,
2013-05-19 15:42:00,33.0,-99.9,30.27,WSW,257,10.0,-999.0,-999,-99.99,,,-99.99,,2013-05-19 23:42:00,
2013-05-19 15:53:00,35.0,-99.9,30.29,WNW,285,8.0,-999.0,-999,-99.99,,,-99.99,,2013-05-19 23:53:00,
2013-05-19 16:02:00,35.0,-99.9,30.29,WNW,285,8.0,-999.0,-999,-99.99,,,-99.99,,2013-05-20 00:02:00,
2013-05-19 16:12:00,35.0,-99.9,30.29,WNW,285,8.0,-999.0,-999,-99.99,,,-99.99,,2013-05-20 00:12:00,
2013-05-19 16:22:00,35.0,-99.9,30.30,WSW,255,9.0,-999.0,-999,-99.99,,,-99.99,,2013-05-20 00:22:00,
2013-05-19 16:32:00,35.0,-99.9,30.30,WSW,255,9.0,-999.0,-999,-99.99,,,-99.99,,2013-05-20 00:32:00,
2013-05-19 16:42:00,35.0,-99.9,30.30,WSW,255,9.0,-999.0,-999,-99.99,,,-99.99,,2013-05-20 00:42:00,
2013-05-19 16:52:00,36.0,-99.9,30.28,WNW,295,9.0,-999.0,-999,-99.99,,,-99.99,,2013-05-20 00:52:00,
2013-05-19 17:01:00,36.0,-99.9,30.28,WNW,295,9.0,-999.0,-999,-99.99,,,-99.99,,2013-05-20 01:01:00,
2013-05-19 17:11:00,36.0,-99.9,30.28,WNW,295,9.0,-999.0,-999,-99.99,,,-99.99,,2013-05-20 01:11:00,
2013-05-19 17:22:00,36.0,-99.9,30.28,WNW,295,9.0,-999.0,-999,-99.99,,,-99.99,,2013-05-20 01:22:00,
2013-05-19 17:32:00,36.0,-99.9,30.28,WNW,295,9.0,-999.0,-999,-99.99,,,-99.99,,2013-05-20 01:32:00,
2013-05-19 18:52:00,35.0,-99.9,30.32,West,281,11.0,-999.0,-999,-99.99,,,-99.99,,2013-05-20 02:52:00,
2013-05-19 19:02:00,35.0,-99.9,30.32,West,281,11.0,-999.0,-999,-99.99,,,-99.99,,2013-05-20 03:02:00,
2013-05-19 19:12:00,35.0,-99.9,30.32,West,281,11.0,-999.0,-999,-99.99,,,-99.99,,2013-05-20 03:12:00,
2013-05-19 19:22:00,36.0,-99.9,30.32,SW,231,8.0,-999.0,-999,-99.99,,,-99.99,,2013-05-20 03:22:00,
2013-05-19 19:33:00,36.0,-99.9,30.32,SW,231,8.0,-999.0,-999,-99.99,,,-99.99,,2013-05-20 03:33:00,
2013-05-19 19:43:00,36.0,-99.9,30.32,SW,231,8.0,-999.0,-999,-99.99,,,-99.99,,2013-05-20 03:43:00,
2013-05-19 19:53:00,36.0,-99.9,30.33,West,269,9.0,-999.0,-999,-99.99,,,-99.99,,2013-05-20 03:53:00,
2013-05-19 20:03:00,36.0,-99.9,30.33,West,269,9.0,-999.0,-999,-99.99,,,-99.99,,2013-05-20 04:03:00,
2013-05-19 20:13:00,36.0,-99.9,30.33,West,269,9.0,-999.0,-999,-99.99,,,-99.99,,2013-05-20 04:13:00,
2013-05-19 20:23:00,36.0,-99.9,30.33,West,269,9.0,-999.0,-999,-99.99,,,-99.99,,2013-05-20 04:23:00,
2013-05-19 20:33:00,36.0,-99.9,30.33,West,269,9.0,-999.0,-999,-99.99,,,-99.99,,2013-05-20 04:33:00,